Time,TemperatureF,DewpointF,PressureIn,WindDirection,WindDirectionDegrees,WindSpeedMPH,WindSpeedGustMPH,Humidity,HourlyPrecipIn,Conditions,Clouds,dailyrainin,SoftwareType,DateUTC
2013-01-19 00:04:00,57.0,-99.9,30.28,NNE,23,10.0,15.0,-999,-99.99,,,-99.99,,2013-01-19 05:04:00,
2013-01-19 00:13:00,57.0,-99.9,30.27,NNE,20,12.0,14.0,-999,-99.99,,,-99.99,,2013-01-19 05:13:00,
2013-01-19 00:23:00,57.0,-99.9,30.27,NNE,16,13.0,15.0,-999,-99.99,,,-99.99,,2013-01-19 05:23:00,
2013-01-19 00:33:00,57.0,-99.9,30.27,NNE,16,15.0,18.0,-999,-99.99,,,-99.99,,2013-01-19 05:33:00,
2013-01-19 00:43:00,56.0,-99.9,30.27,NNE,23,10.0,14.0,-999,-99.99,,,-99.99,,2013-01-19 05:43:00,
2013-01-19 00:53:00,56.0,-99.9,30.26,NNE,17,14.0,18.0,-999,-99.99,,,-99.99,,2013-01-19 05:53:00,
2013-01-19 01:03:00,56.0,-99.9,30.26,NNE,15,16.0,19.0,-999,-99.99,,,-99.99,,2013-01-19 06:03:00,
2013-01-19 01:12:00,56.0,-99.9,30.26,NNE,15,15.0,19.0,-999,-99.99,,,-99.99,,2013-01-19 06:12:00,
2013-01-19 01:23:00,56.0,-99.9,30.26,NNE,21,11.0,15.0,-999,-99.99,,,-99.99,,2013-01-19 06:23:00,
2013-01-19 01:33:00,55.0,-99.9,30.26,NNE,22,10.0,16.0,-999,-99.99,,,-99.99,,2013-01-19 06:33:00,
2013-01-19 01:43:00,55.0,-99.9,30.26,NNE,19,14.0,17.0,-999,-99.99,,,-99.99,,2013-01-19 06:43:00,
2013-01-19 01:53:00,55.0,-99.9,30.26,NNE,17,13.0,17.0,-999,-99.99,,,-99.99,,2013-01-19 06:53:00,
2013-01-19 02:02:00,55.0,-99.9,30.25,NNE,18,12.0,17.0,-999,-99.99,,,-99.99,,2013-01-19 07:02:00,
2013-01-19 02:12:00,55.0,-99.9,30.25,NNE,19,12.0,16.0,-999,-99.99,,,-99.99,,2013-01-19 07:12:00,
2013-01-19 02:23:00,55.0,-99.9,30.25,NNE,20,12.0,16.0,-999,-99.99,,,-99.99,,2013-01-19 07:23:00,
2013-01-19 02:33:00,55.0,-99.9,30.24,NNE,18,13.0,16.0,-999,-99.99,,,-99.99,,2013-01-19 07:33:00,
2013-01-19 02:43:00,55.0,-99.9,30.24,NNE,22,12.0,16.0,-999,-99.99,,,-99.99,,2013-01-19 07:43:00,
2013-01-19 02:53:00,55.0,-99.9,30.24,NNE,21,12.0,16.0,-999,-99.99,,,-99.99,,2013-01-19 07:53:00,
2013-01-19 03:03:00,55.0,-99.9,30.24,NNE,20,8.0,13.0,-999,-99.99,,,-99.99,,2013-01-19 08:03:00,
2013-01-19 03:12:00,55.0,-99.9,30.24,NNE,21,9.0,12.0,-999,-99.99,,,-99.99,,2013-01-19 08:12:00,
2013-01-19 03:22:00,55.0,-99.9,30.24,NE,35,7.0,13.0,-999,-99.99,,,-99.99,,2013-01-19 08:22:00,
2013-01-19 03:33:00,55.0,-99.9,30.24,NNE,27,9.0,13.0,-999,-99.99,,,-99.99,,2013-01-19 08:33:00,
2013-01-19 03:43:00,55.0,-99.9,30.24,NNE,19,8.0,11.0,-999,-99.99,,,-99.99,,2013-01-19 08:43:00,
2013-01-19 03:53:00,55.0,-99.9,30.24,NNE,23,7.0,12.0,-999,-99.99,,,-99.99,,2013-01-19 08:53:00,
2013-01-19 04:03:00,55.0,-99.9,30.23,NNE,25,7.0,13.0,-999,-99.99,,,-99.99,,2013-01-19 09:03:00,
2013-01-19 04:12:00,55.0,-99.9,30.23,NNE,28,7.0,12.0,-999,-99.99,,,-99.99,,2013-01-19 09:12:00,
2013-01-19 04:23:00,55.0,-99.9,30.23,NNE,23,11.0,15.0,-999,-99.99,,,-99.99,,2013-01-19 09:23:00,
2013-01-19 04:33:00,55.0,-99.9,30.23,NNE,22,8.0,12.0,-999,-99.99,,,-99.99,,2013-01-19 09:33:00,
2013-01-19 04:43:00,55.0,-99.9,30.23,NNE,19,10.0,15.0,-999,-99.99,,,-99.99,,2013-01-19 09:43:00,
2013-01-19 04:53:00,55.0,-99.9,30.23,NNE,33,9.0,15.0,-999,-99.99,,,-99.99,,2013-01-19 09:53:00,
2013-01-19 05:02:00,55.0,-99.9,30.23,NNE,23,7.0,10.0,-999,-99.99,,,-99.99,,2013-01-19 10:02:00,
2013-01-19 05:13:00,55.0,-99.9,30.23,NNE,17,10.0,13.0,-999,-99.99,,,-99.99,,2013-01-19 10:13:00,
2013-01-19 05:23:00,55.0,-99.9,30.23,NNE,25,10.0,13.0,-999,-99.99,,,-99.99,,2013-01-19 10:23:00,
2013-01-19 05:33:00,56.0,-99.9,30.23,NNE,15,11.0,13.0,-999,-99.99,,,-99.99,,2013-01-19 10:33:00,
2013-01-19 05:43:00,55.0,-99.9,30.24,NNE,27,9.0,13.0,-999,-99.99,,,-99.99,,2013-01-19 10:43:00,
2013-01-19 05:53:00,56.0,-99.9,30.23,NNE,27,10.0,16.0,-999,-99.99,,,-99.99,,2013-01-19 10:53:00,
2013-01-19 06:03:00,56.0,-99.9,30.23,NNE,21,10.0,17.0,-999,-99.99,,,-99.99,,2013-01-19 11:03:00,
2013-01-19 06:13:00,56.0,-99.9,30.24,NNE,33,6.0,9.0,-999,-99.99,,,-99.99,,2013-01-19 11:13:00,
2013-01-19 06:48:00,56.0,-99.9,30.25,ENE,72,3.0,6.0,-999,-99.99,,,-99.99,,2013-01-19 11:48:00,
2013-01-19 07:48:00,56.0,-99.9,30.24,NE,54,6.0,12.0,-999,-99.99,,,-99.99,,2013-01-19 12:48:00,
2013-01-19 08:03:00,57.0,-99.9,30.25,NNE,22,8.0,11.0,-999,-99.99,,,-99.99,,2013-01-19 13:03:00,
2013-01-19 08:13:00,57.0,-99.9,30.24,NNE,22,10.0,15.0,-999,-99.99,,,-99.99,,2013-01-19 13:13:00,
2013-01-19 08:23:00,57.0,-99.9,30.24,NNE,26,8.0,14.0,-999,-99.99,,,-99.99,,2013-01-19 13:23:00,
2013-01-19 08:34:00,57.0,-99.9,30.25,NNE,23,10.0,13.0,-999,-99.99,,,-99.99,,2013-01-19 13:34:00,
2013-01-19 08:43:00,57.0,-99.9,30.25,NNE,29,9.0,16.0,-999,-99.99,,,-99.99,,2013-01-19 13:43:00,
2013-01-19 08:54:00,57.0,-99.9,30.25,NNE,22,9.0,14.0,-999,-99.99,,,-99.99,,2013-01-19 13:54:00,
2013-01-19 09:03:00,58.0,-99.9,30.26,NE,37,9.0,15.0,-999,-99.99,,,-99.99,,2013-01-19 14:03:00,
2013-01-19 09:13:00,59.0,-99.9,30.26,NE,42,9.0,16.0,-999,-99.99,,,-99.99,,2013-01-19 14:13:00,
2013-01-19 09:23:00,60.0,-99.9,30.26,NE,44,7.0,16.0,-999,-99.99,,,-99.99,,2013-01-19 14:23:00,
2013-01-19 09:34:00,60.0,-99.9,30.26,NE,51,8.0,12.0,-999,-99.99,,,-99.99,,2013-01-19 14:34:00,
2013-01-19 09:43:00,60.0,-99.9,30.26,NNE,31,9.0,16.0,-999,-99.99,,,-99.99,,2013-01-19 14:43:00,
2013-01-19 09:54:00,61.0,-99.9,30.27,NE,37,7.0,14.0,-999,-99.99,,,-99.99,,2013-01-19 14:54:00,
2013-01-19 10:04:00,62.0,-99.9,30.27,NE,37,6.0,11.0,-999,-99.99,,,-99.99,,2013-01-19 15:04:00,
2013-01-19 10:13:00,63.0,-99.9,30.27,NE,53,9.0,14.0,-999,-99.99,,,-99.99,,2013-01-19 15:13:00,
2013-01-19 10:23:00,63.0,-99.9,30.27,NE,55,6.0,15.0,-999,-99.99,,,-99.99,,2013-01-19 15:23:00,
2013-01-19 10:34:00,64.0,-99.9,30.27,ENE,59,7.0,12.0,-999,-99.99,,,-99.99,,2013-01-19 15:34:00,
2013-01-19 10:43:00,64.0,-99.9,30.27,ENE,59,9.0,15.0,-999,-99.99,,,-99.99,,2013-01-19 15:43:00,
2013-01-19 10:53:00,65.0,-99.9,30.27,NE,52,5.0,11.0,-999,-99.99,,,-99.99,,2013-01-19 15:53:00,
2013-01-19 11:04:00,65.0,-99.9,30.27,East,79,9.0,14.0,-999,-99.99,,,-99.99,,2013-01-19 16:04:00,
2013-01-19 11:13:00,66.0,-99.9,30.27,ENE,62,8.0,14.0,-999,-99.99,,,-99.99,,2013-01-19 16:13:00,
2013-01-19 11:23:00,67.0,-99.9,30.27,ENE,73,8.0,13.0,-999,-99.99,,,-99.99,,2013-01-19 16:23:00,
2013-01-19 11:34:00,67.0,-99.9,30.27,East,91,10.0,14.0,-999,-99.99,,,-99.99,,2013-01-19 16:34:00,
2013-01-19 11:43:00,69.0,-99.9,30.26,ENE,73,9.0,12.0,-999,-99.99,,,-99.99,,2013-01-19 16:43:00,
2013-01-19 11:54:00,69.0,-99.9,30.25,East,80,9.0,20.0,-999,-99.99,,,-99.99,,2013-01-19 16:54:00,
2013-01-19 12:03:00,70.0,-99.9,30.25,East,80,9.0,16.0,-999,-99.99,,,-99.99,,2013-01-19 17:03:00,
2013-01-19 12:23:00,70.0,-99.9,30.24,East,85,11.0,17.0,-999,-99.99,,,-99.99,,2013-01-19 17:23:00,
2013-01-19 12:29:00,70.0,-99.9,30.24,NE,50,8.0,18.0,-999,-99.99,,,-99.99,,2013-01-19 17:29:00,
2013-01-19 12:38:00,71.0,-99.9,30.23,ENE,72,9.0,16.0,-999,-99.99,,,-99.99,,2013-01-19 17:38:00,
2013-01-19 12:50:00,71.0,-99.9,30.22,ENE,67,9.0,16.0,-999,-99.99,,,-99.99,,2013-01-19 17:50:00,
2013-01-19 12:55:00,71.0,-99.9,30.22,East,81,11.0,15.0,-999,-99.99,,,-99.99,,2013-01-19 17:55:00,
2013-01-19 13:13:00,71.0,-99.9,30.21,East,94,13.0,20.0,-999,-99.99,,,-99.99,,2013-01-19 18:13:00,
2013-01-19 13:30:00,72.0,-99.9,30.19,ENE,77,10.0,16.0,-999,-99.99,,,-99.99,,2013-01-19 18:30:00,
2013-01-19 13:39:00,73.0,-99.9,30.19,ENE,75,7.0,15.0,-999,-99.99,,,-99.99,,2013-01-19 18:39:00,
2013-01-19 13:48:00,72.0,-99.9,30.18,ENE,68,10.0,16.0,-999,-99.99,,,-99.99,,2013-01-19 18:48:00,
2013-01-19 14:04:00,72.0,-99.9,30.18,NE,39,9.0,13.0,-999,-99.99,,,-99.99,,2013-01-19 19:04:00,
2013-01-19 14:10:00,73.0,-99.9,30.17,ENE,60,9.0,15.0,-999,-99.99,,,-99.99,,2013-01-19 19:10:00,
2013-01-19 14:23:00,73.0,-99.9,30.16,East,83,8.0,14.0,-999,-99.99,,,-99.99,,2013-01-19 19:23:00,
2013-01-19 14:33:00,73.0,-99.9,30.16,East,91,9.0,12.0,-999,-99.99,,,-99.99,,2013-01-19 19:33:00,
2013-01-19 14:40:00,73.0,-99.9,30.15,ENE,69,8.0,15.0,-999,-99.99,,,-99.99,,2013-01-19 19:40:00,
2013-01-19 14:50:00,73.0,-99.9,30.15,ENE,69,9.0,12.0,-999,-99.99,,,-99.99,,2013-01-19 19:50:00,
2013-01-19 14:59:00,73.0,-99.9,30.14,East,79,6.0,10.0,-999,-99.99,,,-99.99,,2013-01-19 19:59:00,
2013-01-19 15:20:00,74.0,-99.9,30.14,ENE,58,8.0,11.0,-999,-99.99,,,-99.99,,2013-01-19 20:20:00,
2013-01-19 15:28:00,73.0,-99.9,30.14,NE,39,9.0,12.0,-999,-99.99,,,-99.99,,2013-01-19 20:28:00,
2013-01-19 15:40:00,73.0,-99.9,30.14,NE,44,10.0,13.0,-999,-99.99,,,-99.99,,2013-01-19 20:40:00,
2013-01-19 15:51:00,73.0,-99.9,30.13,NE,40,10.0,14.0,-999,-99.99,,,-99.99,,2013-01-19 20:51:00,
2013-01-19 15:59:00,73.0,-99.9,30.13,ENE,78,6.0,14.0,-999,-99.99,,,-99.99,,2013-01-19 20:59:00,
2013-01-19 16:09:00,73.0,-99.9,30.13,ENE,69,7.0,12.0,-999,-99.99,,,-99.99,,2013-01-19 21:09:00,
2013-01-19 16:15:00,74.0,-99.9,30.13,ENE,61,9.0,13.0,-999,-99.99,,,-99.99,,2013-01-19 21:15:00,
2013-01-19 16:48:00,74.0,-99.9,30.13,NE,39,8.0,13.0,-999,-99.99,,,-99.99,,2013-01-19 21:48:00,
2013-01-19 16:55:00,73.0,-99.9,30.14,ENE,64,6.0,11.0,-999,-99.99,,,-99.99,,2013-01-19 21:55:00,
2013-01-19 17:03:00,73.0,-99.9,30.14,NE,48,5.0,9.0,-999,-99.99,,,-99.99,,2013-01-19 22:03:00,
2013-01-19 17:29:00,73.0,-99.9,30.14,ENE,67,7.0,10.0,-999,-99.99,,,-99.99,,2013-01-19 22:29:00,
2013-01-19 17:49:00,72.0,-99.9,30.14,ENE,57,9.0,13.0,-999,-99.99,,,-99.99,,2013-01-19 22:49:00,
2013-01-19 17:59:00,72.0,-99.9,30.14,NE,54,5.0,12.0,-999,-99.99,,,-99.99,,2013-01-19 22:59:00,
2013-01-19 18:14:00,72.0,-99.9,30.14,ENE,62,8.0,11.0,-999,-99.99,,,-99.99,,2013-01-19 23:14:00,
2013-01-19 18:29:00,72.0,-99.9,30.15,NE,50,4.0,8.0,-999,-99.99,,,-99.99,,2013-01-19 23:29:00,
2013-01-19 18:35:00,71.0,-99.9,30.15,ENE,59,4.0,8.0,-999,-99.99,,,-99.99,,2013-01-19 23:35:00,
2013-01-19 18:53:00,71.0,-99.9,30.15,NE,52,4.0,7.0,-999,-99.99,,,-99.99,,2013-01-19 23:53:00,
2013-01-19 19:08:00,71.0,-99.9,30.15,ENE,58,5.0,10.0,-999,-99.99,,,-99.99,,2013-01-20 00:08:00,
2013-01-19 19:17:00,71.0,-99.9,30.16,ENE,63,9.0,12.0,-999,-99.99,,,-99.99,,2013-01-20 00:17:00,
2013-01-19 19:26:00,71.0,-99.9,30.16,NE,54,4.0,10.0,-999,-99.99,,,-99.99,,2013-01-20 00:26:00,
2013-01-19 19:48:00,70.0,-99.9,30.16,ENE,57,7.0,11.0,-999,-99.99,,,-99.99,,2013-01-20 00:48:00,
2013-01-19 19:59:00,70.0,-99.9,30.16,ENE,61,7.0,12.0,-999,-99.99,,,-99.99,,2013-01-20 00:59:00,
2013-01-19 20:05:00,70.0,-99.9,30.16,ENE,59,5.0,11.0,-999,-99.99,,,-99.99,,2013-01-20 01:05:00,
2013-01-19 20:22:00,70.0,-99.9,30.16,ENE,70,5.0,9.0,-999,-99.99,,,-99.99,,2013-01-20 01:22:00,
2013-01-19 20:28:00,70.0,-99.9,30.17,ENE,57,7.0,10.0,-999,-99.99,,,-99.99,,2013-01-20 01:28:00,
2013-01-19 20:39:00,69.0,-99.9,30.17,ENE,63,5.0,10.0,-999,-99.99,,,-99.99,,2013-01-20 01:39:00,
2013-01-19 20:53:00,69.0,-99.9,30.17,ENE,61,5.0,9.0,-999,-99.99,,,-99.99,,2013-01-20 01:53:00,
2013-01-19 21:05:00,69.0,-99.9,30.17,ENE,63,6.0,10.0,-999,-99.99,,,-99.99,,2013-01-20 02:05:00,
2013-01-19 21:16:00,69.0,-99.9,30.17,NE,54,6.0,10.0,-999,-99.99,,,-99.99,,2013-01-20 02:16:00,
2013-01-19 21:28:00,68.0,-99.9,30.17,ENE,61,6.0,10.0,-999,-99.99,,,-99.99,,2013-01-20 02:28:00,
2013-01-19 21:38:00,68.0,-99.9,30.17,NE,54,6.0,9.0,-999,-99.99,,,-99.99,,2013-01-20 02:38:00,
2013-01-19 21:46:00,68.0,-99.9,30.16,ENE,60,4.0,7.0,-999,-99.99,,,-99.99,,2013-01-20 02:46:00,
2013-01-19 22:00:00,68.0,-99.9,30.16,NE,56,4.0,6.0,-999,-99.99,,,-99.99,,2013-01-20 03:00:00,
2013-01-19 22:09:00,67.0,-99.9,30.16,ENE,63,3.0,7.0,-999,-99.99,,,-99.99,,2013-01-20 03:09:00,
2013-01-19 22:15:00,67.0,-99.9,30.16,NE,49,3.0,6.0,-999,-99.99,,,-99.99,,2013-01-20 03:15:00,
2013-01-19 22:27:00,67.0,-99.9,30.16,NE,53,4.0,6.0,-999,-99.99,,,-99.99,,2013-01-20 03:27:00,
2013-01-19 22:40:00,67.0,-99.9,30.16,ENE,60,4.0,6.0,-999,-99.99,,,-99.99,,2013-01-20 03:40:00,
2013-01-19 22:48:00,66.0,-99.9,30.16,ENE,60,3.0,6.0,-999,-99.99,,,-99.99,,2013-01-20 03:48:00,
2013-01-19 22:59:00,66.0,-99.9,30.16,ENE,59,3.0,6.0,-999,-99.99,,,-99.99,,2013-01-20 03:59:00,
2013-01-19 23:05:00,66.0,-99.9,30.16,NE,50,2.0,6.0,-999,-99.99,,,-99.99,,2013-01-20 04:05:00,
2013-01-19 23:16:00,66.0,-99.9,30.16,NE,46,2.0,4.0,-999,-99.99,,,-99.99,,2013-01-20 04:16:00,
2013-01-19 23:38:00,66.0,-99.9,30.16,NE,48,4.0,6.0,-999,-99.99,,,-99.99,,2013-01-20 04:38:00,
2013-01-19 23:45:00,66.0,-99.9,30.16,ENE,61,4.0,7.0,-999,-99.99,,,-99.99,,2013-01-20 04:45:00,